Welcome to the New NWS' Forecast!
Most changes are behind the scenes, but click here for differences you might notice.
Latest weather observations around

Jonesboro, Jonesboro Municipal Airport (KJBR)

Using English Units (Switch to International System of Units)
Date/ Time (CDT) Wind (mph) Vis. (mi) Weather Sky Cond. Temp (°F) Rel. Humidity Wind Chill (°F) Heat Index (°F) Pressure Precip. (in)
Air Dwpt 6 hour Altimeter (inHg) Sea level (inHg) 1 hr 3 hr 6 hr
Max Min
Aug 17 03:53 SSW 14 10 Partly Cloudy SCT075 77 76     96%   79 29.92 29.91      
Aug 17 02:53 SW 11 10 Clear CLR 78 77     96%   81 29.93 29.91      
Aug 17 01:53 SSW 14 10 Clear CLR 79 77     94%   83 29.93 29.91      
Aug 17 00:53 S 8 10 Clear CLR 79 78     97%   83 29.94 29.93      
Aug 16 23:53 S 6 10 Clear CLR 79 79     100%   84 29.95 29.93      
Aug 16 22:53 SSW 5 10 Clear CLR 79 79     100%   84 29.94 29.93      
Aug 16 21:53 S 7 10 Clear CLR 80 79     97%   87 29.94 29.93      
Aug 16 20:53 S 6 10 Clear CLR 81 79     94%   89 29.93 29.92      
Aug 16 19:53 S 8 10 Clear CLR 83 79     88%   94 29.92 29.91      
Aug 16 18:53 S 9 10 Clear CLR 87 80     80%   103 29.93 29.91      
Aug 16 17:53 SSW 11 10 Clear CLR 88 79     75%   103 29.92 29.91      
Aug 16 16:53 SSW 14 10 Partly Cloudy FEW029 SCT036 88 79     75%   103 29.94 29.92      
Aug 16 15:53 SSW 13 10 Partly Cloudy FEW026 SCT033 88 80     78%   105 29.93 29.92      
Aug 16 14:53 SW 13 10 Mostly Cloudy SCT023 BKN031 87 79     77%   101 29.93 29.92      
Aug 16 14:20 SW 10 10 Cloudy FEW018 FEW023 OVC030 85 79     82%   98 29.95        
Aug 16 13:53 SW 11 10 Cloudy BKN018 OVC023 82 79     90%   92 29.96 29.95      
Aug 16 12:53 S 14 10 Cloudy BKN016 OVC023 82 79     90%   92 29.99 29.97      
Aug 16 12:33 SSW 13 10 Cloudy FEW012 OVC019 82 78     88%   91 29.99        
Aug 16 12:01 SW 10 10 Cloudy OVC011 81 79     94%   89 30        
Aug 16 11:53 SSW 9 10 Cloudy BKN009 OVC014 81 78     91%   89 30 29.99      
Aug 16 10:53 SSW 13 10 Cloudy OVC008 79 78     97%   83 30.01 29.99      
Aug 16 09:53 SSW 11 10 Cloudy OVC007 78 78     100%   81 30 29.99      
Aug 16 08:53 SSW 10 10 Cloudy OVC006 77 77     100%   79 29.99 29.98      
Aug 16 07:53 S 7 10 Cloudy OVC007 76 76     100%   78 29.98 29.96      
Aug 16 07:40 S 6 10 Mostly Cloudy BKN007 76 76     100%   78 29.97        
Aug 16 07:25 SSE 3 10 Mostly Clear FEW007 75 75     100%   77 29.97        
Aug 16 05:53 S 3 10 Clear CLR 73 73     100%   75 29.95 29.94      
Aug 16 04:53 E 5 10 Clear CLR 73 73     100%   75 29.94 29.93      
Aug 16 03:53 Calm 10 Clear CLR 74 74     100%   76 29.93 29.92      
Aug 16 02:53 Calm 10 Clear CLR 73 73     100%   75 29.91 29.9      
Aug 16 01:53 Calm 10 Clear CLR 74 74     100%   76 29.9 29.89      
Aug 16 00:53 NE 3 10 Clear CLR 75 75     100%   77 29.91 29.9      
Aug 15 23:53 ENE 6 10 Clear CLR 75 75     100%   77 29.92 29.91      
Aug 15 22:53 NE 3 10 Mostly Clear FEW075 76 75     97%   78 29.92 29.91      
Aug 15 21:53 Calm 10 Clear CLR 76 76     100%   78 29.93 29.92      
Aug 15 20:53 ESE 3 10 Mostly Clear FEW033 78 76     93%   80 29.92 29.91      
Aug 15 19:53 SSE 6 10 Partly Cloudy SCT038 80 75     85%   85 29.9 29.88      
Aug 15 18:53 SSE 6 10 Clear CLR 82 76     82%   89 29.88 29.87      
Aug 15 17:53 ESE 7 10 Mostly Cloudy SCT024 BKN030 83 77     82%   92 29.86 29.85      
Aug 15 16:53 ESE 8 10 Cloudy OVC022 84 77     80%   94 29.86 29.85      
Aug 15 16:23 ESE 7 10 Mostly Cloudy BKN023 84 77     80%   94 29.87        
Aug 15 15:53 SE 6 10 Mostly Clear FEW021 83 76     79%   91 29.88 29.86      
Aug 15 14:53 ESE 8 10 Mostly Clear FEW016 FEW021 82 75     79%   89 29.9 29.88      
Aug 15 13:53 ESE 11 10 Mostly Clear FEW012 80 76     87%   85 29.92 29.91      
Aug 15 13:03 E 11 10 Mostly Clear FEW007 79 76     90%   83 29.92        
Aug 15 11:53 E 5 10 Cloudy OVC007 75 75     100%   77 29.95 29.94 0    
Aug 15 11:40 ESE 6 10 Cloudy BKN008 BKN044 OVC110 75 74     96%   77 29.95   0    
Aug 15 11:31 ESE 5 10 Mostly Cloudy SCT008 SCT044 BKN090 75 75     100%   77 29.95   0    
Aug 15 10:53 NE 6 10 Light Rain FEW037 SCT090 BKN110 74 74     100%   76 29.93 29.92 0    
Aug 15 09:53 NE 5 6 Clear   73 73     100%   75 29.95 29.94 0    
Aug 15 09:44 NE 3 8 Light Rain FEW021 BKN035 OVC110 73 73     100%   75 29.95   0    
Aug 15 09:31 NNE 7 7 Light Rain SCT014 BKN050 OVC110 73 73     100%   75 29.95   0    
Aug 15 09:24 N 5 2 Rain and Fog/Mist SCT014 BKN031 OVC110 73 73     100%   75 29.94   0    
Aug 15 09:21 NW 5 1.5 Thunderstorms and Rain and Fog/Mist SCT014 BKN031 OVC048 73 73     100%   75 29.94   0    
Aug 15 09:16 Calm 1.75 Thunderstorms and Heavy Rain and Fog/Mist BKN012 BKN025 OVC050 73 73     100%   75 29.94   0    
Aug 15 09:08 7 2.5 Thunderstorms and Heavy Rain and Fog/Mist SCT010 BKN017 OVC033 73 73     100%   75 29.93   0    
Aug 15 09:01 W 8 10 Light Rain FEW008 BKN015 OVC050 74 73     97%   76 29.94   0    
Aug 15 08:53 Calm 2.5 Thunderstorms and Rain and Fog/Mist FEW004 BKN015 OVC030 73 73     100%   75 29.92 29.91      
Aug 15 08:51 Calm 2.5 Thunderstorms and Heavy Rain and Fog/Mist FEW004 BKN015 OVC030 73 73     100%   75 29.92        
Aug 15 08:43 E 6 10 Thunderstorms and Rain SCT004 BKN012 OVC032 73 73     100%   75 29.91        
Aug 15 08:24 NNW 6 10 Thunderstorms and Rain BKN004 OVC037 75 75     100%   77 29.91        
Aug 15 08:18 ENE 6 6 Light Rain and Fog/Mist SCT003 BKN035 OVC042 75 75     100%   77 29.9        
Aug 15 08:03 ENE 6 10 Thunderstorms and Rain FEW005 OVC037 75 75     100%   77 29.9        
Aug 15 07:53 ENE 8 10 Light Rain SCT005 OVC037 75 75     100%   77 29.9 29.89      
Aug 15 07:28 NNW 5 10 Cloudy BKN005 OVC034 75 75     100%   77 29.91        
Aug 15 06:46 SE 3 10 Cloudy FEW003 BKN050 OVC060 74 74     100%   76 29.89        
Aug 15 05:53 Calm 10 Cloudy OVC075 75 75     100%   77 29.88 29.87      
Aug 15 04:53 S 5 10 Mostly Cloudy FEW003 SCT065 BKN085 75 75     100%   77 29.88 29.86      
Aug 15 04:24 S 5 10 Mostly Clear FEW003 75 75     100%   77 29.87        
Aug 15 02:53 Calm 10 Clear CLR 76 76     100%   78 29.87 29.85      
Aug 15 02:08 Calm 10 Partly Cloudy SCT006 76 76     100%   78 29.86        
Aug 15 01:53 Calm 10 Mostly Cloudy BKN006 76 76     100%   78 29.87 29.85      
Aug 14 23:53 SW 7 10 Cloudy OVC005 76 76     100%   78 29.88 29.86      
Aug 14 22:53 SW 8 10 Cloudy OVC005 77 77     100%   79 29.87 29.86      
Aug 14 22:21 S 6 10 Mostly Cloudy BKN006 77 77     100%   79 29.87        
Aug 14 20:53 SSW 8 10 Mostly Clear FEW006 77 77     100%   79 29.85 29.83      
Aug 14 20:46 SW 7 10 Mostly Clear FEW007 78 77     96%   81 29.84        
Aug 14 20:22 SSW 8 10 Mostly Clear FEW020 FEW028 78 78     100%   81 29.83        
Aug 14 19:53 SW 7 10 Mostly Cloudy BKN028 79 78     97%   83 29.83 29.82      
Aug 14 19:40 WSW 9 10 Clear   79 78     97%   83 29.83        
Aug 14 18:53 Calm 10 Clear   82 77     85%   90 29.82 29.81      
Aug 14 17:53 NW 3 10 Mostly Clear FEW025 82 76     82%   89 29.81 29.8      
Aug 14 16:53 Calm 10 Mostly Clear FEW019 82 77     85%   90 29.81 29.8      
Aug 14 15:24 WSW 7 10 Mostly Cloudy BKN023 81 76     85%   87 29.85        
Aug 14 14:53 W 10 10 Partly Cloudy FEW028 SCT044 82 75     79%   89 29.85 29.84      
Aug 14 13:53 NW 8 10 Mostly Cloudy SCT025 BKN033 BKN046 83 76     79%   91 29.86 29.84      
Aug 14 11:53 7 10 Clear   82 76     82%   89 29.87 29.86      
Aug 14 11:42 W 7 10 Cloudy FEW022 BKN040 OVC047 81 76     85%   87 29.87        
Aug 14 10:53 W 6 10 Mostly Cloudy BKN018 BKN023 80 76     87%   85 29.87 29.86      
Aug 14 09:51 W 6 10 Cloudy SCT009 OVC020 79 77     94%   83 29.86        
Aug 14 08:53 SW 6 10 Cloudy OVC006 76 76     100%   78 29.86 29.85      
Aug 14 05:53 ENE 6 7 Cloudy OVC005 71 71     100%   73 29.87 29.86      
Aug 14 05:17 NE 6 3 Rain and Fog/Mist OVC005 71 71     100%   73 29.86        
Aug 14 05:05 ENE 6 2 Heavy Rain and Fog/Mist OVC006 71 71     100%   73 29.87        
Aug 14 04:53 NE 5 6 Light Rain and Fog/Mist BKN006 OVC015 71 71     100%   73 29.86 29.85      
Notice The following observation data may not be complete
Aug 14 03:28   9 Cloudy OVC014          %              
Aug 14 02:53 ENE 5 10 Cloudy BKN022 OVC027 72 72     100%   74 29.88 29.87      
Aug 14 01:53 ENE 5 9 Light Rain BKN027 OVC036 72 72     100%   74 29.89 29.88      
Aug 14 01:49 ENE 5 10 Light Rain BKN027 OVC036 72 72     100%   73 29.89        
Aug 13 17:53 E 8 10 Mostly Cloudy SCT033 SCT042 BKN080 77 72     84%   78 29.93 29.92      
Aug 13 16:53 E 7 10 Light Rain FEW036 SCT065 OVC100 77 71     82%   78 29.94 29.93      
Aug 13 15:53 E 6 10 Mostly Clear FEW085 78 70     76%   79 29.95 29.94      
Aug 13 14:53 ENE 7 10 Mostly Cloudy BKN095 78 69     74%   79 29.97 29.96      
Aug 13 13:53 ENE 7 10 Mostly Clear FEW120 77 71     82%   78 29.97 29.96      
Aug 13 11:53 NE 7 10 Light Rain BKN070 OVC085 75 69     82%   76 30.01 30      
Aug 13 01:53 NE 7 10 Clear CLR 71 65     81%   72 30 29.99      
Aug 12 23:53 NE 6 10 Clear CLR 71 68     90%   72 30.01 30      
Aug 12 17:53 NNE 9 10 Clear CLR 82 65     56%   84 30 29.98      
Aug 12 13:53 NE 10 10 Mostly Clear FEW035 83 69     63%   87 30.04 30.03      
Aug 12 11:53 E 10 10 Clear CLR 81 71     72%   85 30.05 30.03      
Aug 12 10:22 ENE 13 10 Partly Cloudy SCT029 77 70     79%   78 30.04        
Aug 12 05:53 N 6 10 Mostly Cloudy BKN100 73 72     96%   75 29.98 29.97      
Aug 12 02:53 Calm 10 Cloudy OVC070 74 74     100%   76 29.96 29.95      
Aug 12 01:53 WNW 11 10 Cloudy FEW027 OVC055 75 75     100%   77 29.97 29.96      
Aug 12 01:50 WNW 9 10 Cloudy FEW027 OVC055 75 75     100%   77 29.97        
Aug 11 23:53 Calm 10 Clear CLR 74 74     100%   76 29.97 29.96      
Aug 11 20:53 Calm 10 Clear CLR 77 76     96%   79 29.98 29.96      
Aug 11 12:39 Calm 3 Thunderstorms and Rain and Fog/Mist BKN039 OVC080 72 72     100%   74 30.03        
Aug 11 12:04 NW 6 0.75 Thunderstorms and Heavy Rain and Fog/Mist BKN025 BKN030 OVC040 72 72     100%   74 30.07        
Aug 11 11:53 NNW 14 1.75 Thunderstorms and Heavy Rain and Fog/Mist FEW022 BKN042 OVC060 72 71     97%   73 30.07 30.06      
Aug 11 11:47 N 11 2.5 Thunderstorms and Heavy Rain and Fog/Mist FEW019 BKN043 OVC095 73 72     94%   75 30.07   0    
Aug 11 11:27 NNW 3 10 Cloudy FEW065 OVC100 80 77     90%   86 30.05        
Aug 11 08:53 S 5 10 Clear CLR 81 76     85%   87 30.02 30.01      
Aug 11 07:53 S 5 10 Clear CLR 75 73     94%   77 30.03 30.02      
Aug 11 05:53 Calm 10 Clear   70 70     100%     30.02 30.01      
Aug 11 04:53 Calm 10 Clear CLR 70 70     100%     30.01 30      
Aug 11 03:53 Calm 10 Clear CLR 70 70     100%     30.02 30      
Aug 11 02:53 Calm 10 Clear CLR 71 70     96%   72 30.03 30.01      
Aug 11 01:53 Calm 10 Clear CLR 71 70     96%   72 30.02 30.01      
Aug 11 00:53 Calm 10 Clear CLR 71 70     96%   72 30.02 30.01      
Aug 10 23:53 Calm 10 Clear CLR 74 71     91%   75 30.04 30.03      
Aug 10 22:53 Calm 10 Clear CLR 74 72     94%   75 30.06 30.04      
Aug 10 21:53 Calm 10 Clear CLR 74 72     94%   75 30.05 30.04      
Aug 10 20:53 Calm 10 Clear CLR 76 72     88%   77 30.03 30.02      
Aug 10 19:53 ENE 6 10 Clear CLR 79 72     79%   82 30.02 30.01      
Aug 10 18:53 ESE 6 10 Clear CLR 86 69     57%   90 30.02 30.01      
Aug 10 17:53 E 7 10 Clear CLR 88 71     57%   94 30.04 30.03      
Aug 10 16:53 E 7 10 Clear CLR 89 70     53%   94 30.04 30.02      
Aug 10 15:53 ENE 7 10 Clear CLR 89 66     47%   92 30.05 30.03      
Aug 10 14:53 ENE 8 10 Clear CLR 89 67     48%   92 30.06 30.05      
Aug 10 13:53 ESE 8 10 Clear CLR 88 70     55%   93 30.08 30.07      
Aug 10 12:53 7 10 Clear CLR 87 70     57%   92 30.1 30.09      
Aug 10 11:53 E 5 10 Clear CLR 86 67     53%   89 30.12 30.11      
Aug 10 10:53 SE 5 10 Clear CLR 83 71     67%   88 30.13 30.12      
Aug 10 09:53 NE 3 10 Clear CLR 80 72     76%   84 30.13 30.12      
Aug 10 08:53 SE 5 10 Clear CLR 75 70     84%   76 30.13 30.12      
Aug 10 07:53 NE 6 10 Clear CLR 72 69     91%   73 30.11 30.1      
Aug 10 06:53 Calm 10 Clear CLR 67 66     97%     30.11 30.1      
Aug 10 05:53 Calm 10 Clear CLR 67 66     97%     30.09 30.08      
Aug 10 04:53 Calm 10 Clear CLR 68 67     96%     30.08 30.07      
Aug 10 03:53 Calm 10 Clear CLR 69 67     93%     30.07 30.06      
Aug 10 02:53 Calm 10 Clear CLR 69 68     96%     30.07 30.06      
Aug 10 01:53 Calm 10 Clear CLR 69 68     96%     30.07 30.06      
Aug 10 00:53 Calm 10 Clear CLR 70 69     97%     30.08 30.07      
Aug 09 23:53 Calm 10 Clear CLR 72 69     91%   73 30.09 30.09      
Aug 09 22:53 NNE 3 10 Clear CLR 72 69     91%   73 30.09 30.09      
Aug 09 21:53 NE 3 10 Clear CLR 73 69     87%   74 30.08 30.07      
Aug 09 20:53 NE 3 10 Clear CLR 74 70     87%   75 30.07 30.06      
Aug 09 19:53 ENE 3 10 Clear CLR 77 71     82%   78 30.06 30.06      
Aug 09 18:53 E 6 10 Clear CLR 83 69     63%   87 30.06 30.05      
Aug 09 17:53 ENE 8 10 Clear CLR 85 70     61%   89 30.06 30.05      
Aug 09 16:53 ENE 8 10 Clear CLR 85 69     59%   89 30.06 30.05      
Aug 09 15:53 ENE 9 10 Clear CLR 86 69     57%   90 30.06 30.05      
Aug 09 14:53 E 7 10 Mostly Clear FEW040 86 70     59%   91 30.08 30.07      
Aug 09 13:53 E 8 10 Clear CLR 85 69     59%   89 30.1 30.08      
Aug 09 12:53 NNE 9 10 Clear CLR 84 70     63%   88 30.11 30.1      
Aug 09 11:53 E 7 10 Clear CLR 82 69     65%   85 30.12 30.11      
Aug 09 10:53 ENE 6 10 Clear CLR 79 70     74%   82 30.13 30.12      
Aug 09 09:53 NE 6 10 Clear CLR 76 69     79%   77 30.13 30.12      
Aug 09 08:53 ENE 7 10 Clear CLR 73 68     84%   74 30.12 30.11      
Aug 09 07:53 NE 9 10 Clear CLR 70 66     87%     30.11 30.11      
Aug 09 06:53 NNE 7 10 Clear CLR 68 65     90%     30.11 30.1      
Aug 09 05:53 NE 7 10 Clear CLR 68 65     90%     30.1 30.09      
Aug 09 04:53 NE 8 10 Clear CLR 68 66     93%     30.09 30.08      
Aug 09 03:53 NE 8 10 Clear   69 66     90%     30.09 30.08      
Aug 09 02:53 NE 8 10 Clear CLR 70 66     87%     30.09 30.08      
Aug 09 01:53 NNE 7 10 Clear CLR 70 66     87%     30.09 30.08      
Aug 09 00:53 NE 6 10 Clear CLR 70 66     87%     30.09 30.08      
Aug 08 23:53 NE 7 10 Clear CLR 70 66     87%     30.09 30.08      
Aug 08 22:53 NE 7 10 Clear CLR 72 67     84%   73 30.08 30.08      
Aug 08 21:53 NE 7 10 Clear CLR 73 68     84%   74 30.08 30.07      
Aug 08 20:53 NE 7 10 Clear CLR 73 69     87%   74 30.06 30.06      
Aug 08 19:53 NE 8 10 Clear CLR 77 69     77%   78 30.05 30.04      
Aug 08 18:53 NE 9 10 Clear CLR 80 69     69%   83 30.04 30.03      
Aug 08 17:53 NE 11 10 Partly Cloudy SCT070 80 70     71%   83 30.04 30.03      
Aug 08 16:53 ENE 9 10 Mostly Clear FEW036 83 70     65%   87 30.05 30.04      
Aug 08 15:53 ENE 11 10 Clear CLR 83 70     65%   87 30.06 30.05      
Aug 08 14:53 NE 10 10 Clear CLR 83 71     67%   88 30.07 30.06      
Aug 08 12:53 NE 11 10 Mostly Clear FEW030 81 72     74%   85 30.1 30.09      
Aug 08 11:53 ENE 13 10 Clear CLR 80 72     76%   84 30.1 30.09      
Aug 08 10:53 NE 13 10 Clear CLR 79 71     77%   82 30.11 30.1      
Aug 08 09:53 NE 9 10 Clear CLR 76 70     82%   77 30.1 30.09      
Aug 08 08:53 NE 13 10 Clear CLR 73 69     87%   74 30.08 30.08      
Aug 08 07:53 NE 11 10 Clear CLR 71 68     90%   72 30.07 30.06      
Aug 08 06:53 NNE 9 10 Clear CLR 70 69     97%     30.06 30.05      
Aug 08 05:53 NE 7 10 Clear CLR 70 69     97%     30.04 30.03      
Aug 08 04:53 N 6 10 Clear CLR 70 69     97%     30.04 30.03      
Aug 08 03:53 N 5 10 Cloudy OVC047 71 70     96%   72 30.03 30.03      
Aug 08 02:53 NNE 5 10 Mostly Clear FEW043 70 70     100%     30.03 30.02      
Aug 08 01:53 N 5 10 Clear CLR 70 70     100%     30.04 30.03      
Aug 08 00:53 NNE 3 6 Fog/Mist CLR 67 67     100%     30.04 30.03      
Aug 07 23:53 Calm 8 Clear CLR 69 69     100%     30.04 30.03      
Aug 07 22:53 N 3 9 Clear CLR 69 69     100%     30.03 30.02      
Aug 07 21:53 Calm 10 Clear CLR 70 70     100%     30.03 30.02      
Aug 07 20:53 ESE 3 10 Clear CLR 71 70     96%   72 30.01 30      
Aug 07 19:53 ESE 3 10 Clear CLR 73 71     94%   74 30 29.99      
Aug 07 19:14 ENE 3 10 Mostly Clear FEW018 FEW029 75 71     88%   76 29.99        
Aug 07 18:53 ENE 7 10 Mostly Cloudy FEW019 BKN029 75 71     88%   76 29.99 29.98      
Aug 07 17:53 ENE 6 10 Cloudy OVC023 74 71     91%   75 30 29.98      
Aug 07 16:53 NE 6 10 Cloudy OVC026 75 71     88%   76 30.01 30      
Aug 07 15:53 E 6 10 Cloudy OVC017 74 71     91%   75 30 29.99      
Aug 07 14:53 NNE 7 10 Cloudy OVC017 74 71     91%   75 30 29.99      
Aug 07 14:49 NNE 6 10 Cloudy OVC017 73 72     94%   75 30        
Aug 07 14:41 NNE 8 10 Cloudy BKN013 OVC020 74 71     91%   75 29.99        
Aug 07 14:34 N 9 10 Cloudy SCT013 OVC018 74 71     91%   75 29.99        
Aug 07 13:53 NE 9 10 Cloudy OVC010 74 71     91%   75 29.99 29.98      
Aug 07 13:26 N 8 10 Cloudy OVC012 74 71     91%   75 30        
Aug 07 13:07 NE 6 10 Cloudy OVC015 74 72     94%   75 30.01        
Aug 07 12:53 NNE 6 10 Cloudy OVC011 74 71     91%   75 30.01 30      
Aug 07 12:05 5 10 Cloudy BKN011 OVC015 75 72     90%   76 30.01        
Aug 07 11:53 ENE 6 10 Cloudy OVC009 74 71     91%   75 30.01 30      
Aug 07 11:26 NE 5 10 Cloudy OVC009 74 72     94%   75 30.01        
Aug 07 10:53 NE 6 10 Cloudy OVC010 74 72     94%   75 30 29.99      
Aug 07 10:51 ENE 6 10 Cloudy BKN008 OVC012 73 72     94%   75 30        
Aug 07 10:44 NE 5 10 Cloudy SCT008 OVC012 74 72     94%   75 30        
Aug 07 10:31 ENE 7 10 Cloudy OVC008 73 71     94%   74 30        
Aug 07 09:53 Calm 10 Cloudy OVC011 73 71     94%   74 29.99 29.98      
Aug 07 09:13 NE 5 10 Cloudy BKN013 OVC018 74 71     91%   75 29.97        
Aug 07 08:53 NNE 3 10 Cloudy BKN007 OVC060 73 71     94%   74 29.97 29.96      
Aug 07 07:53 N 3 10 Cloudy OVC006 72 71     97%   73 29.96 29.95      
Aug 07 06:42 NNW 3 10 Cloudy OVC008 71 71     100%   73 29.93        
Aug 07 06:25 WSW 3 10 Cloudy SCT005 OVC010 71 71     100%   73 29.93        
Aug 07 05:53 N 3 10 Cloudy OVC005 71 71     100%   73 29.93 29.92      
Aug 07 04:53 WNW 5 10 Cloudy OVC005 71 71     100%   73 29.91 29.9      
Aug 07 02:53 NW 8 10 Cloudy OVC005 71 71     100%   73 29.92 29.91      
Aug 07 02:33 NW 6 10 Cloudy OVC005 72 72     100%   74 29.92        
Aug 07 02:08 WNW 5 10 Cloudy OVC004 72 72     100%   74 29.91        
Aug 07 01:53 W 5 10 Cloudy OVC005 72 72     100%   74 29.9 29.9      
Aug 07 01:04 WNW 3 10 Cloudy BKN006 OVC065 73 73     100%   75 29.91        
Aug 07 00:49 W 3 10 Cloudy SCT006 OVC065 73 73     100%   75 29.9        
Aug 06 23:53 NW 7 10 Cloudy FEW055 OVC080 73 73     100%   75 29.9 29.89      
Aug 06 22:53 W 10 5 Rain and Fog/Mist FEW008 BKN039 OVC070 74 74     100%   76 29.9 29.89      
Aug 06 22:46 W 9 4 Rain and Fog/Mist FEW006 SCT017 OVC035 74 74     100%   76 29.9        
Aug 06 22:21 W 11 10 Cloudy SCT026 BKN035 OVC055 76 74     94%   78 29.89   0    
Aug 06 22:11 WSW 13 10 Light Rain BKN026 OVC055 76 74     94%   78 29.89   0    
Aug 06 21:53 WSW 8 10 Mostly Cloudy SCT029 BKN060 76 74     94%   78 29.88 29.88      
Aug 06 20:53 SSW 9 10 Mostly Cloudy BKN037 77 73     88%   79 29.87 29.86      
Aug 06 20:39 SSW 7 10 Partly Cloudy SCT023 SCT037 76 73     91%   77 29.86        
Aug 06 20:14 SW 8 10 Mostly Cloudy BKN023 77 73     88%   79 29.85        
Aug 06 19:53 SW 8 10 Mostly Clear FEW024 77 73     88%   79 29.85 29.84      
Aug 06 18:53 SSW 13 10 Cloudy FEW018 BKN032 OVC055 79 74     85%   83 29.84 29.83 0   0
Aug 06 18:50 SW 11 10 Cloudy SCT018 BKN030 OVC055 79 73     84%   82 29.84   0    
Aug 06 17:53 SSW 10 10 Light Rain BKN021 BKN048 OVC070 78 74     87%   80 29.84 29.83 0    
Aug 06 16:53 S 14 10 Cloudy FEW043 BKN090 OVC110 79 76     90%   83 29.85 29.84 0    
Aug 06 16:21 S 13 10 Partly Cloudy FEW021 SCT070 81 76     85%   87 29.84        
Aug 06 16:00 S 11 10 Mostly Cloudy SCT015 BKN024 BKN035 81 78     91%   89 29.86        
Aug 06 15:53 S 14 10 Mostly Cloudy SCT015 SCT020 BKN035 81 78     91%   89 29.86 29.85 0 0  
Aug 06 14:53 SSE 8 8 Light Rain SCT026 BKN080 OVC100 79 78     97%   83 29.87 29.86 0    
Aug 06 14:42 S 7 7 Light Rain SCT021 BKN045 OVC095 79 78     97%   83 29.88   0    
Aug 06 13:53 S 8 10 Mostly Cloudy SCT016 BKN026 80 76     87%   85 29.89 29.88      
Aug 06 13:02 S 13 10 Mostly Cloudy BKN015 BKN085 80 76     87%   85 29.9        
Aug 06 12:53 SSE 11 10 Mostly Cloudy BKN014 BKN090 80 76     87%   85 29.9 29.89      
Aug 06 11:53 S 8 10 Clear CLR 79 75     88%   83 29.92 29.91      
Aug 06 10:53 S 9 10 Clear CLR 77 72     84%   78 29.92 29.91      
Aug 06 09:53 SE 8 10 Clear CLR 74 69     85%   75 29.93 29.92      
Aug 06 08:53 E 6 10 Clear CLR 71 67     87%   72 29.94 29.93      
Aug 06 07:53 ENE 7 10 Clear CLR 69 65     87%     29.94 29.93      
Aug 06 06:53 ENE 9 10 Mostly Clear FEW090 68 64     87%     29.94 29.93      
Aug 06 05:53 ENE 9 10 Mostly Cloudy BKN037 BKN044 68 63     84%     29.95 29.94      
Aug 06 04:53 NNE 13 10 Cloudy BKN042 OVC055 70 64     81%     29.94 29.93      
Aug 06 03:53 NE 8 10 Mostly Cloudy BKN046 69 65     87%     29.93 29.92      
Aug 06 02:53 ENE 8 10 Mostly Clear FEW055 68 65     90%     29.93 29.92      
Aug 06 01:53 ENE 9 10 Cloudy OVC065 70 64     81%     29.96 29.95      
Aug 06 00:53 ENE 6 10 Clear CLR 68 64     87%     29.97 29.96      
Aug 05 23:53 ENE 6 10 Clear CLR 68 64     87%     29.97 29.96      
Aug 05 22:53 ENE 7 10 Clear CLR 69 64     84%     29.97 29.96      
Aug 05 21:53 ENE 7 10 Clear CLR 70 65     84%     29.98 29.97      
Aug 05 20:53 ENE 7 10 Clear CLR 71 65     81%   72 29.98 29.97      
Aug 05 19:53 ENE 9 10 Mostly Cloudy BKN055 76 64     67%   76 29.99 29.98      
Aug 05 18:53 ENE 6 10 Cloudy OVC049 77 65     66%   78 30.01 30      
Aug 05 17:53 NNE 7 10 Cloudy OVC049 78 64     62%   79 30.03 30.02      
Aug 05 16:53 E 8 10 Mostly Clear FEW048 81 63     54%   82 30.05 30.04      
Aug 05 15:53 E 8 10 Clear CLR 83 62     49%   84 30.05 30.04      
Aug 05 14:53 ESE 9 10 Mostly Cloudy BKN060 82 63     53%   83 30.05 30.04      
Aug 05 13:53 ESE 5 10 Clear CLR 80 62     54%   81 30.07 30.06      
Aug 05 12:53 ESE 8 10 Partly Cloudy FEW060 SCT075 78 62     58%   78 30.08 30.08      
Aug 05 11:53 ESE 10 10 Cloudy OVC070 76 60     58%   76 30.11 30.1      
Aug 05 10:53 ESE 11 10 Cloudy OVC070 74 60     62%   74 30.11 30.1      
Aug 05 09:53 ESE 14 10 Mostly Clear FEW070 73 60     64%   73 30.11 30.1      
Aug 05 08:53 ESE 9 10 Clear CLR 70 61     73%     30.12 30.11      
Aug 05 07:53 E 5 10 Clear CLR 66 61     84%     30.11 30.11      
Aug 05 06:53 E 6 10 Mostly Cloudy BKN075 63 60     90%     30.11 30.1      
Aug 05 05:53 NE 6 10 Mostly Clear FEW060 62 60     93%     30.11 30.1      
Aug 05 04:53 ENE 9 10 Mostly Cloudy BKN065 64 61     90%     30.09 30.08      
Aug 05 03:53 NE 6 10 Clear CLR 63 60     90%     30.08 30.07      
Aug 05 02:53 NE 7 10 Clear CLR 63 60     90%     30.08 30.07      
Aug 05 01:53 NNE 3 10 Clear CLR 64 61     90%     30.08 30.07      
Aug 05 00:53 NE 5 10 Clear CLR 65 63     93%     30.07 30.06      
Aug 04 23:53 Calm 10 Clear CLR 64 62     93%     30.06 30.05      
Aug 04 22:53 Calm 10 Clear CLR 66 64     93%     30.06 30.05      
Aug 04 21:53 N 5 10 Clear CLR 67 65     93%     30.05 30.04      
Aug 04 20:53 NNE 3 10 Clear CLR 69 65     87%     30.04 30.03      
Aug 04 19:53 ENE 3 10 Clear CLR 74 65     74%   74 30.04 30.03      
Aug 04 18:53 N 5 10 Clear CLR 80 64     58%   82 30.03 30.02      
Aug 04 17:53 NNW 7 10 Clear CLR 80 63     56%   81 30.03 30.02      
Aug 04 16:53 N 8 10 Mostly Clear FEW040 81 65     58%   83 30.04 30.03      
Aug 04 15:53 N 7 10 Clear CLR 81 66     61%   83 30.04 30.03      
Aug 04 14:53 NNE 5 10 Mostly Clear FEW037 82 67     60%   85 30.05 30.04      
Aug 04 13:53 7 10 Mostly Cloudy BKN034 80 69     69%   83 30.07 30.06      
Aug 04 12:53 NNE 9 10 Mostly Clear FEW090 FEW100 80 68     67%   83 30.07 30.06      
Aug 04 11:53 NNE 7 10 Clear CLR 79 68     69%   80 30.08 30.07      
Aug 04 10:53 N 7 10 Mostly Cloudy SCT055 BKN075 77 69     77%   78 30.07 30.06      
Aug 04 09:53 N 6 10 Cloudy BKN048 OVC080 74 69     85%   75 30.07 30.06      
Aug 04 08:53 N 7 10 Cloudy BKN070 OVC095 74 70     87%   75 30.05 30.04      
Aug 04 07:53 NW 6 10 Mostly Cloudy BKN070 73 72     96%   75 30.03 30.02      
Aug 04 06:53 WNW 6 10 Clear CLR 71 71     100%   73 30.01 30     0
Aug 04 05:53 NW 5 10 Clear CLR 71 70     96%   72 29.99 29.98      
Aug 04 04:53 WNW 3 10 Partly Cloudy FEW039 SCT075 72 71     97%   73 29.98 29.97      
Jun 10 21:53 S 6 10 Clear CLR 75 62     64%   75 29.97 29.96      
Jun 10 11:53 SW 10 10 Partly Cloudy SCT050 83 59     44%   83 30.01 30.01      
Jun 09 23:53 Calm 10 Clear CLR 62 58     86%     29.95 29.94      
Jun 08 22:53 Calm 10 Clear CLR 63 56     78%     29.93 29.92      
Jun 08 06:53 NNE 6 10 Clear CLR 64 55     73%     30.01 30      
Jun 06 11:53 E 7 10 Mostly Clear FEW003 82 68     63%   85 29.84 29.83      
Jun 06 01:53 Calm 4 Fog/Mist CLR 69 67     93%     29.8 29.79